Overview Statistics Trail Chart Weather Telemetry Raw packets
 

This is the latest recevied weather packets stored in our database for station/object VK4TW-13. If no packets are shown the sender has not sent any weather packets the latest 10 day(s).

<< 56 57 58 59 60 61 62 >>
Time Temp. Humidity Pressure Rain* Wind** Luminosity Snow
1787964690 25.56° C 100% 1025.4 hPa 0 mm - - -
1787964087 25° C 100% 1025.3 hPa 0 mm - - -
1787963487 24.44° C 100% 1025.4 hPa 0 mm - - -
1787962889 23.89° C 100% 1025.7 hPa 0 mm - - -
1787962285 23.89° C 100% 1025.6 hPa 0 mm - - -
1787962110 24.44° C 100% 1025.6 hPa 0 mm - - -
1787961835 23.89° C 100% 1025.5 hPa 0 mm - - -
1787961233 24.44° C 100% 1025.5 hPa 0 mm - - -
1787960632 24.44° C 100% 1025.6 hPa 0 mm - - -
1787960444 24.44° C 100% 1025.5 hPa 0 mm - - -
1787959856 23.89° C 100% 1025.4 hPa 0 mm - - -
1787959675 24.44° C 100% 1025.5 hPa 0 mm - - -
1787959475 23.89° C 100% 1025.4 hPa 0 mm - - -
1787959294 23.89° C 100% 1025.3 hPa 0 mm - - -
1787959039 23.89° C 100% 1025.3 hPa 0 mm - - -
1787958860 23.33° C 100% 1025.5 hPa 0 mm - - -
1787958611 23.33° C 100% 1025.3 hPa 0 mm - - -
1787958011 23.33° C 100% 1025.5 hPa 0 mm - - -
1787957410 22.78° C 100% 1025.3 hPa 0 mm - - -
1787956809 22.78° C 100% 1025 hPa 0 mm - - -
1787956208 22.22° C 100% 1025.2 hPa 0 mm - - -
1787955608 21.67° C 100% 1025 hPa 0 mm - - -
1787955411 21.67° C 100% 1024.9 hPa 0 mm - - -
1787954999 21.11° C 100% 1024.9 hPa 0 mm - - -
1787954398 20.56° C 100% 1024.8 hPa 0 mm - - -

* Rain since midnight (hover to see other rain measurements)
** Current wind speed in m/s (hover to see current wind gust speed)